Location: Long Geng
(2.6167°N, 114.1333°E)
Time: 17:41:42
(UTC+00:00)

Tsikada Rocket - Pass Details

Date: 14 May 2021
Orbit: 957 x 1010 km, 82.9° (Epoch: 16 June)

Event Time Altitude Azimuth Distance (km) Brightness Sun altitude
Exits shadow 20:22:07 51° 300° (WNW) 1,246 4.2 -26.7°
Drops below altitude 10° 20:27:33 10° 350° (N) 2,775 6.5 -25.5°
Sets 20:30:08 0° 354° (N) 3,720 7.2 -24.9°
